When you browse on this site, cookies collect data to enhance your experience and personalize the content and advertising you see.
Visit our Privacy Policy to learn more. By continuing to use the site, you agree to this use of cookies and data.
  • In Austria
  • List of Countries
  • For 7 days
  • Water Temperature
  • Weather Map
  • News
  • Weather Widgets
  • user-avatar
    Login

    Hourly Weather Ciudad Sahagun

    Today, 17 November, Sunday

    Time Temperature Precipitation Wind Pressure Humidity
    00:00 +11°C° 0 mm 0 mps 567 mmHg 88%
    01:00 +10°C° 0 mm 0 mps 567 mmHg 88%
    02:00 +10°C° 0 mm 0 mps 566 mmHg 88%
    03:00 +10°C° 0 mm 0 mps 566 mmHg 88%
    04:00 +10°C° 0 mm 0 mps 566 mmHg 88%
    05:00 +10°C° 0 mm 0 mps 566 mmHg 88%
    06:00 +11°C° 0 mm 0 mps 567 mmHg 81%
    07:00 +13°C° 0 mm 0 mps 568 mmHg 74%
    08:00 +15°C° 0 mm 0 mps 569 mmHg 66%
    09:00 +18°C° 0 mm 1 mps 570 mmHg 59%
    10:00 +18°C° 0 mm 2 mps 570 mmHg 53%
    11:00 +20°C° 0 mm 2 mps 570 mmHg 46%
    12:00 +20°C° 0 mm 3 mps 570 mmHg 47%
    13:00 +20°C° 0 mm 4 mps 569 mmHg 48%
    14:00 +19°C° 0 mm 4 mps 569 mmHg 49%
    15:00 +18°C° 0.1 mm 4 mps 568 mmHg 57%
    16:00 +17°C° 0.1 mm 3 mps 568 mmHg 64%
    17:00 +14°C° 0.1 mm 3 mps 567 mmHg 72%
    18:00 +15°C° 0 mm 2 mps 567 mmHg 73%
    19:00 +14°C° 0 mm 2 mps 568 mmHg 74%
    20:00 +14°C° 0 mm 1 mps 568 mmHg 74%
    21:00 +13°C° 0 mm 1 mps 568 mmHg 74%
    22:00 +13°C° 0 mm 1 mps 568 mmHg 74%
    23:00 +12°C° 0 mm 0 mps 567 mmHg 74%

    Tomorrow, 18 November, Monday

    Time Temperature Precipitation Wind Pressure Humidity
    00:00 +11°C° 0 mm 0 mps 567 mmHg 73%
    01:00 +11°C° 0 mm 0 mps 567 mmHg 73%
    02:00 +11°C° 0 mm 0 mps 566 mmHg 72%
    03:00 +11°C° 0 mm 0 mps 566 mmHg 73%
    04:00 +10°C° 0 mm 0 mps 566 mmHg 74%
    05:00 +10°C° 0 mm 0 mps 566 mmHg 75%
    06:00 +11°C° 0 mm 0 mps 567 mmHg 68%
    07:00 +13°C° 0 mm 0 mps 568 mmHg 62%
    08:00 +14°C° 0 mm 0 mps 569 mmHg 55%
    09:00 +16°C° 0 mm 0 mps 569 mmHg 52%
    10:00 +19°C° 0 mm 1 mps 569 mmHg 49%
    11:00 +20°C° 0 mm 1 mps 570 mmHg 46%
    12:00 +20°C° 0 mm 2 mps 569 mmHg 46%
    13:00 +20°C° 0 mm 2 mps 569 mmHg 46%
    14:00 +20°C° 0 mm 2 mps 569 mmHg 46%
    15:00 +19°C° 0 mm 2 mps 568 mmHg 55%
    16:00 +17°C° 0 mm 3 mps 568 mmHg 64%
    17:00 +16°C° 0 mm 3 mps 567 mmHg 73%
    18:00 +16°C° 0.2 mm 2 mps 567 mmHg 75%
    19:00 +15°C° 0.2 mm 2 mps 568 mmHg 76%
    20:00 +15°C° 0.2 mm 1 mps 568 mmHg 78%
    21:00 +15°C° 0.2 mm 1 mps 568 mmHg 78%
    22:00 +14°C° 0.2 mm 1 mps 568 mmHg 78%
    23:00 +13°C° 0.2 mm 0 mps 568 mmHg 79%

    Day after tomorrow, 19 November, Tuesday

    Time Temperature Precipitation Wind Pressure Humidity
    00:00 +12°C° 0 mm 0 mps 567 mmHg 81%
    01:00 +12°C° 0 mm 0 mps 566 mmHg 83%
    02:00 +11°C° 0 mm 0 mps 566 mmHg 85%
    03:00 +11°C° 0 mm 0 mps 566 mmHg 86%
    04:00 +11°C° 0 mm 0 mps 566 mmHg 87%
    05:00 +10°C° 0 mm 0 mps 566 mmHg 88%
    06:00 +12°C° 0 mm 0 mps 567 mmHg 81%
    07:00 +14°C° 0 mm 1 mps 568 mmHg 74%
    08:00 +16°C° 0 mm 1 mps 569 mmHg 68%
    09:00 +18°C° 0 mm 1 mps 569 mmHg 61%
    10:00 +19°C° 0 mm 1 mps 569 mmHg 55%
    11:00 +20°C° 0 mm 1 mps 570 mmHg 48%
    12:00 +20°C° 0 mm 1 mps 569 mmHg 47%
    13:00 +21°C° 0 mm 1 mps 569 mmHg 46%
    14:00 +21°C° 0 mm 1 mps 569 mmHg 45%
    15:00 +20°C° 0 mm 1 mps 568 mmHg 51%
    16:00 +18°C° 0 mm 2 mps 568 mmHg 58%
    17:00 +17°C° 0 mm 2 mps 568 mmHg 64%
    18:00 +16°C° 0 mm 2 mps 568 mmHg 71%
    19:00 +15°C° 0 mm 1 mps 568 mmHg 77%
    20:00 +14°C° 0 mm 1 mps 568 mmHg 84%
    21:00 +14°C° 0 mm 1 mps 567 mmHg 84%
    22:00 +13°C° 0 mm 1 mps 567 mmHg 85%
    23:00 +13°C° 0 mm 1 mps 567 mmHg 85%

    20 November, Wednesday

    Time Temperature Precipitation Wind Pressure Humidity
    00:00 +13°C° 0 mm 1 mps 567 mmHg 86%
    01:00 +13°C° 0 mm 1 mps 566 mmHg 87%
    02:00 +13°C° 0 mm 1 mps 566 mmHg 88%
    03:00 +12°C° 0 mm 1 mps 566 mmHg 88%
    04:00 +12°C° 0 mm 1 mps 566 mmHg 88%
    05:00 +12°C° 0 mm 1 mps 566 mmHg 88%
    06:00 +13°C° 0 mm 1 mps 567 mmHg 82%
    07:00 +15°C° 0 mm 1 mps 568 mmHg 75%
    08:00 +15°C° 0 mm 0 mps 569 mmHg 69%
    09:00 +19°C° 0 mm 1 mps 569 mmHg 62%
    10:00 +20°C° 0 mm 1 mps 570 mmHg 55%
    11:00 +22°C° 0 mm 1 mps 570 mmHg 48%
    12:00 +22°C° 0 mm 1 mps 570 mmHg 45%
    13:00 +23°C° 0 mm 1 mps 570 mmHg 43%
    14:00 +23°C° 0 mm 1 mps 569 mmHg 40%
    15:00 +21°C° 0 mm 2 mps 569 mmHg 47%
    16:00 +19°C° 0 mm 2 mps 569 mmHg 54%
    17:00 +18°C° 0 mm 2 mps 568 mmHg 61%
    18:00 +17°C° 0 mm 2 mps 568 mmHg 65%
    19:00 +16°C° 0 mm 2 mps 568 mmHg 69%
    20:00 +15°C° 0 mm 1 mps 568 mmHg 73%
    21:00 +15°C° 0 mm 1 mps 568 mmHg 72%
    22:00 +15°C° 0 mm 1 mps 568 mmHg 71%
    23:00 +15°C° 0 mm 1 mps 568 mmHg 70%

    21 November, Thursday

    Time Temperature Precipitation Wind Pressure Humidity
    00:00 +14°C° 0 mm 1 mps 567 mmHg 71%
    01:00 +14°C° 0 mm 1 mps 567 mmHg 72%
    02:00 +14°C° 0 mm 1 mps 567 mmHg 73%
    03:00 +13°C° 0 mm 1 mps 567 mmHg 75%
    04:00 +13°C° 0 mm 1 mps 567 mmHg 77%
    05:00 +13°C° 0 mm 1 mps 567 mmHg 79%
    06:00 +13°C° 0 mm 0 mps 568 mmHg 74%
    07:00 +14°C° 0 mm 0 mps 569 mmHg 69%
    08:00 +16°C° 0 mm 0 mps 570 mmHg 65%
    09:00 +17°C° 0 mm 0 mps 570 mmHg 57%
    10:00 +21°C° 0 mm 1 mps 570 mmHg 50%
    11:00 +22°C° 0 mm 1 mps 571 mmHg 43%
    12:00 +22°C° 0 mm 1 mps 570 mmHg 41%
    13:00 +23°C° 0 mm 1 mps 570 mmHg 39%
    14:00 +23°C° 0 mm 1 mps 570 mmHg 37%
    15:00 +22°C° 0 mm 1 mps 569 mmHg 44%
    16:00 +19°C° 0 mm 2 mps 569 mmHg 51%
    17:00 +18°C° 0 mm 2 mps 568 mmHg 59%
    18:00 +18°C° 0 mm 1 mps 568 mmHg 63%
    19:00 +18°C° 0 mm 1 mps 568 mmHg 67%
    20:00 +16°C° 0 mm 1 mps 568 mmHg 71%
    21:00 +15°C° 0 mm 1 mps 568 mmHg 73%
    22:00 +15°C° 0 mm 1 mps 568 mmHg 74%
    23:00 +15°C° 0 mm 1 mps 567 mmHg 76%

    22 November, Friday

    Time Temperature Precipitation Wind Pressure Humidity
    00:00 +14°C° 0 mm 1 mps 567 mmHg 78%
    01:00 +14°C° 0 mm 1 mps 567 mmHg 80%
    02:00 +14°C° 0 mm 1 mps 566 mmHg 82%
    03:00 +12°C° 0 mm 0 mps 566 mmHg 83%
    04:00 +12°C° 0 mm 0 mps 566 mmHg 84%
    05:00 +12°C° 0 mm 0 mps 566 mmHg 85%
    06:00 +13°C° 0 mm 0 mps 567 mmHg 79%
    07:00 +15°C° 0 mm 0 mps 568 mmHg 73%
    08:00 +18°C° 0 mm 1 mps 569 mmHg 67%
    09:00 +19°C° 0 mm 1 mps 570 mmHg 61%
    10:00 +21°C° 0 mm 1 mps 570 mmHg 55%
    11:00 +21°C° 0 mm 2 mps 570 mmHg 49%
    12:00 +21°C° 0.1 mm 2 mps 570 mmHg 48%
    13:00 +23°C° 0.1 mm 2 mps 569 mmHg 46%
    14:00 +22°C° 0.1 mm 3 mps 569 mmHg 44%
    15:00 +20°C° 0.1 mm 2 mps 568 mmHg 52%
    16:00 +19°C° 0.1 mm 2 mps 568 mmHg 59%
    17:00 +18°C° 0.1 mm 2 mps 567 mmHg 67%
    18:00 +17°C° 0.1 mm 2 mps 567 mmHg 70%
    19:00 +16°C° 0.1 mm 2 mps 567 mmHg 73%
    20:00 +15°C° 0.1 mm 1 mps 568 mmHg 77%
    21:00 +15°C° 0 mm 1 mps 568 mmHg 77%
    22:00 +14°C° 0 mm 1 mps 568 mmHg 77%
    23:00 +14°C° 0 mm 1 mps 568 mmHg 77%
    Show more